User: anonymous
Location: Unspecified
(0.0000°N, 0.0000°E)
Time: 19:19:52
(UTC+02:00)
Language:

SJ-6B - Orbit

View from above orbital plane
View from above orbital plane
View from above satellite
View from above satellite

Ground track
Ground track

The orbit data is extracted from the following two-line orbital elements,

1 28415U 04035C   14234.61807002  .00001730  00000-0  13108-3 0  2697
2 28415 097.8013 239.6782 0055879 008.6940 351.5239 15.02432590543728
Epoch (UTC): 22 August 2014 14:50:01
Eccentricity: 0.0055879
inclination: 97.8013°
perigee height: 520 km
apogee height: 598 km
right ascension of ascending node: 239.6782°
argument of perigee: 8.6940°
revolutions per day: 15.02432590
mean anomaly at epoch: 351.5239°
orbit number at epoch: 54372

The dashed part of the orbit path shows where the satellite is in the earth's shadow,  

DLR